Regional Weather Roundup
Issued by NWS Albany, NY

Home | Current Version | Previous Version | Text Only | Print | Product List | Glossary On
Versions: 1 2 3 4 5 6 7 8 9 10 11 12 13 14 15 16 17 18 19 20 21 22 23 24 25 26 27 28 29 30 31 32 33 34 35 36 37 38 39 40 41 42 43 44 45 46 47 48 49 50
959
ASUS41 KALY 261710
RWRALY

NEW YORK STATE HOURLY WEATHER ROUNDUP
NATIONAL WEATHER SERVICE ALBANY NY
100 PM EDT TUE JUL 26 2016

NOTE: "FAIR" INDICATES FEW OR NO CLOUDS BELOW 12,000 FEET WITH NO
SIGNIFICANT WEATHER AND/OR NO OBSTRUCTIONS TO VISIBILITY.

NYZ032-033-038>043-046>054-057>066-NYZ062>081-082-084-261800-
EAST


CITY           SKY/WX    TMP DP  RH WIND       PRES   REMARKS
ALBANY         MOSUNNY   83  63  50 NW15      29.90S
GLENS FALLS    MOSUNNY   83  63  50 S6        29.87F
POUGHKEEPSIE   MOSUNNY   88  64  44 NW10      29.87F
NEWBURGH       MOSUNNY   84  70  61 NW14      29.92F
MONTGOMERY     MOSUNNY   86  65  49 W13       29.90F
WHITE PLAINS   MOSUNNY   86  64  47 NW12      29.90F
ISLIP          MOSUNNY   89  64  43 NW15G24   29.87F HX  90
NEW YORK CITY  MOSUNNY   88  64  44 NW13G24   29.88F
CENTRAL PARK   MOSUNNY   88  65  46 MISG      29.92F HX  90
$$

NYZ005>009-017-018-044>046-055-056-261800-
CENTRAL


CITY           SKY/WX    TMP DP  RH WIND       PRES   REMARKS
FULTON         MOSUNNY   80  64  58 W15       29.97S
SYRACUSE       PTSUNNY   78  64  61 NW9       29.96S
ROME           MOSUNNY   78  66  66 W10       29.95F
ELMIRA         SUNNY     81  57  43 N6        29.98F
BINGHAMTON     MOSUNNY   76  58  53 N14       30.01S
MONTICELLO     MOSUNNY   79  63  57 W14       29.98S
$$

NYZ026>034-041>043-087-261800-
NORTH


CITY           SKY/WX    TMP DP  RH WIND       PRES   REMARKS
WATERTOWN      MOSUNNY   81  60  48 W12G22    29.93S
FORT DRUM      NOT AVBL
MASSENA        PTSUNNY   77  61  57 W9        29.89S
SARANAC LAKE   CLOUDY    72  56  57 W9G17     29.93R
PLATTSBURGH    CLOUDY    82  60  47 NW14G24   29.85R
$$

NYZ001>004-010>016-019>021-085-261800-
WEST


CITY           SKY/WX    TMP DP  RH WIND       PRES   REMARKS
NIAGARA FALLS  MOSUNNY   81  59  47 NW9G16    30.01F
BUFFALO        MOSUNNY   77  61  57 W5        30.02S
DUNKIRK        SUNNY     76  63  64 W10       30.05S
JAMESTOWN      MOSUNNY   75  57  53 N6        30.07F
WELLSVILLE     MOSUNNY   78  59  51 VRB6      30.07F
ROCHESTER      PTSUNNY   79  63  57 NW9G20    30.00S
PENN YAN       MOSUNNY   79  61  53 NW8       30.01S
$$

             KEY
       WCI = WIND CHILL INDEX
       VSB = VISIBILITY
       HX  = HEAT INDEX
$$




USA.gov is the U.S. government's official web portal to all federal, state and local government web resources and services.